sat.trackr.live / text

‹ back to catalog

STARLINK-31902

NORAD 59666 · 2024-084N

PAYLOAD ACTIVE UNKNOWN

§ Identity

Operator
Country
US
Launch date
2024-05-06
Launch site
AFETR
Launch vehicle
Mass (kg)
RCS (m²)

Purposes: comms

External: N2YO · Heavens-Above · Gunter

§ Orbital elements

Epoch: 2026-09-21T14:38:19.139136Z

Period
94.27 min
Inclination
43.0026°
Eccentricity
0.0001235
Mean motion
15.27581251 rev/d
Perigee alt
482.2 km
Apogee alt
483.9 km
Semi-major
6,861.2 km
B*
2.7207e-5
RAAN
15.5991°
Arg perigee
276.2231°
Mean anomaly
83.8479°
Rev number
13,433

§ Raw data

STARLINK-319021 59666U 24084N   26264.60994374  .00000487  00000+0  27207-4 0  99922 59666  43.0026  15.5991 0001235 276.2231  83.8479 15.27581251134333

JSON: /api/v1/satellites/59666 · /tle

For live sub-satellite position, see the globe view (requires WebGL).

§ Visibility from observer

Set your observer location to see the next 7 days of passes ≥ 10°. The values pass through the URL so the page stays shareable.

No JS? Fill the form by hand. The geolocation button needs JavaScript.